| time (UTC) | temp F | wind direction | speed MPH | gust MPH | rain 1hr in | rain 24hr in | rain mn in | humidity % | barometer mb |
| 20260831024541 | 72 | 0 | 0.0 | 0.0 | 0.00 | 0.00 | 0.00 | 88 | 1018.8 |
| 20260831023037 | 73 | 0 | 0.0 | 0.0 | 0.00 | 0.00 | 0.00 | 86 | 1018.9 |
| 20260831021537 | 74 | 0 | 0.0 | 0.0 | 0.00 | 0.00 | 0.00 | 86 | 1019.0 |
| 20260831020038 | 74 | 0 | 0.0 | 0.0 | 0.00 | 0.00 | 0.00 | 86 | 1019.0 |
| 20260831014534 | 74 | 0 | 0.0 | 0.0 | 0.00 | 0.00 | 0.00 | 86 | 1018.8 |
| 20260831013039 | 74 | 0 | 0.0 | 0.0 | 0.00 | 0.00 | 0.00 | 85 | 1018.7 |
| 20260831011539 | 75 | 0 | 0.0 | 0.0 | 0.00 | 0.00 | 0.00 | 85 | 1018.7 |
| 20260831010043 | 76 | 0 | 0.0 | 0.0 | 0.00 | 0.00 | 0.00 | 84 | 1018.6 |
| 20260831004536 | 77 | 0 | 0.0 | 0.0 | 0.00 | 0.00 | 0.00 | 83 | 1018.5 |
| 20260831003037 | 77 | 0 | 0.0 | 0.0 | 0.00 | 0.00 | 0.00 | 84 | 1018.3 |
| 20260831001538 | 77 | 0 | 0.0 | 0.0 | 0.00 | 0.00 | 0.00 | 84 | 1018.2 |
| 20260831000037 | 79 | 0 | 0.0 | 1.0 | 0.00 | 0.00 | 0.00 | 83 | 1018.1 |
| 20260830234551 | 80 | 0 | 0.0 | 0.0 | 0.00 | 0.00 | 0.00 | 81 | 1018.2 |
| 20260830233038 | 81 | 0 | 0.0 | 0.0 | 0.00 | 0.00 | 0.00 | 76 | 1018.0 |
| 20260830231535 | 82 | 0 | 0.0 | 1.0 | 0.00 | 0.00 | 0.00 | 72 | 1017.8 |
| 20260830230037 | 84 | 0 | 0.0 | 2.0 | 0.00 | 0.00 | 0.00 | 68 | 1017.8 |
| 20260830224534 | 85 | 205 | 1.0 | 4.0 | 0.00 | 0.00 | 0.00 | 67 | 1017.8 |
| 20260830223039 | 85 | 205 | 2.0 | 5.0 | 0.00 | 0.00 | 0.00 | 65 | 1017.9 |
| 20260830221540 | 85 | 241 | 2.0 | 5.0 | 0.00 | 0.00 | 0.00 | 66 | 1017.9 |
| 20260830220039 | 85 | 214 | 0.0 | 3.0 | 0.00 | 0.00 | 0.00 | 67 | 1017.8 |
| 20260830214543 | 84 | 229 | 1.0 | 4.0 | 0.00 | 0.00 | 0.00 | 66 | 1018.0 |
| 20260830213037 | 85 | 229 | 2.0 | 8.0 | 0.00 | 0.00 | 0.00 | 62 | 1018.1 |
| 20260830211539 | 88 | 207 | 4.0 | 11.0 | 0.00 | 0.00 | 0.00 | 57 | 1018.2 |
| 20260830210045 | 86 | 221 | 1.0 | 6.0 | 0.00 | 0.00 | 0.00 | 57 | 1018.3 |
| 20260830204537 | 87 | 227 | 3.0 | 7.0 | 0.00 | 0.00 | 0.00 | 55 | 1018.5 |
| 20260830203048 | 88 | 216 | 4.0 | 8.0 | 0.00 | 0.00 | 0.00 | 54 | 1018.7 |
| 20260830201539 | 88 | 219 | 0.0 | 3.0 | 0.00 | 0.00 | 0.00 | 53 | 1018.9 |
| 20260830200037 | 88 | 0 | 2.0 | 7.0 | 0.00 | 0.00 | 0.00 | 56 | 1019.2 |
| 20260830194539 | 88 | 232 | 1.0 | 5.0 | 0.00 | 0.00 | 0.00 | 53 | 1019.2 |
| 20260830193035 | 87 | 0 | 0.0 | 7.0 | 0.00 | 0.00 | 0.00 | 53 | 1019.6 |
| 20260830191536 | 86 | 204 | 1.0 | 5.0 | 0.00 | 0.00 | 0.00 | 58 | 1019.8 |
| 20260830190040 | 87 | 138 | 0.0 | 9.0 | 0.00 | 0.00 | 0.00 | 53 | 1020.0 |
| 20260830184535 | 89 | 192 | 3.0 | 10.0 | 0.00 | 0.00 | 0.00 | 52 | 1020.2 |
| 20260830183038 | 88 | 233 | 1.0 | 7.0 | 0.00 | 0.00 | 0.00 | 57 | 1020.4 |
| 20260830181539 | 88 | 0 | 0.0 | 6.0 | 0.00 | 0.00 | 0.00 | 54 | 1020.6 |
| 20260830180043 | 88 | 0 | 0.0 | 6.0 | 0.00 | 0.00 | 0.00 | 57 | 1020.9 |
| 20260830174541 | 88 | 292 | 1.0 | 6.0 | 0.00 | 0.00 | 0.00 | 58 | 1021.0 |
| 20260830173100 | 86 | 241 | 4.0 | 10.0 | 0.00 | 0.00 | 0.00 | 56 | 1021.2 |
| 20260830171539 | 87 | 259 | 2.0 | 8.0 | 0.00 | 0.00 | 0.00 | 60 | 1021.2 |
| 20260830170037 | 86 | 220 | 4.0 | 11.0 | 0.00 | 0.00 | 0.00 | 59 | 1021.2 |
| 20260830164534 | 87 | 267 | 2.0 | 8.0 | 0.00 | 0.00 | 0.00 | 65 | 1021.1 |
| 20260830163041 | 86 | 204 | 1.0 | 7.0 | 0.00 | 0.00 | 0.00 | 65 | 1021.0 |
| 20260830161538 | 85 | 272 | 1.0 | 8.0 | 0.00 | 0.00 | 0.00 | 67 | 1021.0 |
| 20260830160039 | 83 | 237 | 2.0 | 7.0 | 0.00 | 0.00 | 0.00 | 71 | 1021.1 |
| 20260830154535 | 83 | 210 | 4.0 | 10.0 | 0.00 | 0.00 | 0.00 | 68 | 1021.1 |
| 20260830153036 | 82 | 237 | 2.0 | 10.0 | 0.00 | 0.00 | 0.00 | 71 | 1021.0 |
| 20260830151538 | 81 | 180 | 3.0 | 8.0 | 0.00 | 0.00 | 0.00 | 74 | 1020.9 |
| 20260830150038 | 80 | 229 | 3.0 | 8.0 | 0.00 | 0.00 | 0.00 | 74 | 1020.9 |
| 20260830144540 | 79 | 0 | 0.0 | 7.0 | 0.00 | 0.00 | 0.00 | 77 | 1020.6 |
| 20260830143041 | 77 | 253 | 2.0 | 5.0 | 0.00 | 0.00 | 0.00 | 79 | 1020.4 |
| 20260830141537 | 76 | 205 | 0.0 | 5.0 | 0.00 | 0.00 | 0.00 | 79 | 1020.3 |
| 20260830140041 | 75 | 227 | 0.0 | 5.0 | 0.00 | 0.00 | 0.00 | 80 | 1020.0 |
| 20260830134537 | 73 | 214 | 1.0 | 5.0 | 0.00 | 0.00 | 0.00 | 85 | 1019.9 |
| 20260830133039 | 73 | 0 | 0.0 | 3.0 | 0.00 | 0.00 | 0.00 | 86 | 1020.1 |
| 20260830131545 | 72 | 170 | 0.0 | 3.0 | 0.00 | 0.00 | 0.00 | 87 | 1020.3 |
| 20260830130038 | 71 | 0 | 0.0 | 0.0 | 0.00 | 0.00 | 0.00 | 89 | 1020.2 |
| 20260830124541 | 70 | 0 | 0.0 | 0.0 | 0.00 | 0.00 | 0.00 | 91 | 1020.4 |
| 20260830123038 | 68 | 0 | 0.0 | 0.0 | 0.00 | 0.00 | 0.00 | 93 | 1020.4 |
| 20260830121537 | 67 | 0 | 0.0 | 0.0 | 0.00 | 0.00 | 0.00 | 94 | 1020.4 |
| 20260830120037 | 65 | 0 | 0.0 | 0.0 | 0.00 | 0.00 | 0.00 | 94 | 1020.1 |
| 20260830114534 | 64 | 0 | 0.0 | 0.0 | 0.00 | 0.00 | 0.00 | 94 | 1019.8 |
| 20260830113034 | 64 | 0 | 0.0 | 0.0 | 0.00 | 0.00 | 0.00 | 94 | 1019.8 |
| 20260830111537 | 64 | 0 | 0.0 | 0.0 | 0.00 | 0.00 | 0.00 | 94 | 1019.6 |
| 20260830110040 | 64 | 0 | 0.0 | 0.0 | 0.00 | 0.00 | 0.00 | 94 | 1019.7 |
| 20260830104538 | 64 | 0 | 0.0 | 0.0 | 0.00 | 0.00 | 0.00 | 94 | 1019.7 |
| 20260830103049 | 64 | 0 | 0.0 | 0.0 | 0.00 | 0.00 | 0.00 | 94 | 1019.6 |
| 20260830101537 | 64 | 0 | 0.0 | 0.0 | 0.00 | 0.00 | 0.00 | 94 | 1019.6 |
| 20260830100038 | 65 | 0 | 0.0 | 0.0 | 0.00 | 0.00 | 0.00 | 94 | 1019.8 |
| 20260830094534 | 64 | 0 | 0.0 | 0.0 | 0.00 | 0.00 | 0.00 | 94 | 1019.7 |
| 20260830093052 | 65 | 0 | 0.0 | 0.0 | 0.00 | 0.00 | 0.00 | 94 | 1019.5 |
| 20260830091536 | 65 | 0 | 0.0 | 0.0 | 0.00 | 0.00 | 0.00 | 94 | 1019.4 |
| 20260830090037 | 65 | 0 | 0.0 | 0.0 | 0.00 | 0.00 | 0.00 | 94 | 1019.5 |
| 20260830084538 | 66 | 0 | 0.0 | 0.0 | 0.00 | 0.00 | 0.00 | 94 | 1019.5 |
| 20260830083035 | 66 | 0 | 0.0 | 0.0 | 0.00 | 0.00 | 0.00 | 94 | 1019.6 |
| 20260830081537 | 67 | 0 | 0.0 | 0.0 | 0.00 | 0.00 | 0.00 | 93 | 1019.6 |
| 20260830080036 | 67 | 0 | 0.0 | 0.0 | 0.00 | 0.00 | 0.00 | 94 | 1019.7 |
| 20260830074537 | 66 | 0 | 0.0 | 0.0 | 0.00 | 0.00 | 0.00 | 94 | 1019.8 |
| 20260830073036 | 66 | 0 | 0.0 | 0.0 | 0.00 | 0.00 | 0.00 | 94 | 1020.0 |
| 20260830071607 | 66 | 0 | 0.0 | 0.0 | 0.00 | 0.00 | 0.00 | 94 | 1020.2 |
| 20260830070040 | 66 | 0 | 0.0 | 0.0 | 0.00 | 0.00 | 0.00 | 93 | 1020.3 |
| 20260830064536 | 66 | 0 | 0.0 | 0.0 | 0.00 | 0.00 | 0.00 | 93 | 1020.2 |
| 20260830063042 | 67 | 0 | 0.0 | 0.0 | 0.00 | 0.00 | 0.00 | 93 | 1020.4 |
| 20260830061538 | 67 | 0 | 0.0 | 0.0 | 0.00 | 0.00 | 0.00 | 93 | 1020.3 |
| 20260830060036 | 66 | 0 | 0.0 | 0.0 | 0.00 | 0.00 | 0.00 | 93 | 1020.4 |
| 20260830054538 | 67 | 0 | 0.0 | 0.0 | 0.00 | 0.00 | 0.00 | 93 | 1020.3 |
| 20260830053036 | 67 | 0 | 0.0 | 0.0 | 0.00 | 0.00 | 0.00 | 92 | 1020.4 |
| 20260830051539 | 68 | 0 | 0.0 | 0.0 | 0.00 | 0.00 | 0.00 | 92 | 1020.3 |
| 20260830050038 | 67 | 0 | 0.0 | 0.0 | 0.00 | 0.00 | 0.00 | 92 | 1020.3 |
| 20260830044553 | 67 | 0 | 0.0 | 0.0 | 0.00 | 0.00 | 0.00 | 92 | 1020.2 |
| 20260830043037 | 67 | 0 | 0.0 | 0.0 | 0.00 | 0.00 | 0.00 | 92 | 1019.9 |
| 20260830041546 | 67 | 0 | 0.0 | 0.0 | 0.00 | 0.00 | 0.00 | 93 | 1020.1 |
| 20260830040054 | 67 | 0 | 0.0 | 0.0 | 0.00 | 0.00 | 0.00 | 92 | 1020.2 |
| 20260830034539 | 67 | 0 | 0.0 | 0.0 | 0.00 | 0.00 | 0.00 | 91 | 1020.2 |
| 20260830033042 | 68 | 0 | 0.0 | 0.0 | 0.00 | 0.00 | 0.00 | 92 | 1020.1 |
| 20260830031536 | 67 | 0 | 0.0 | 0.0 | 0.00 | 0.00 | 0.00 | 92 | 1020.3 |
| 20260830030037 | 68 | 0 | 0.0 | 0.0 | 0.00 | 0.00 | 0.00 | 91 | 1020.1 |